Home   Weather   City of Ann Arbor   Past weeks
Flag for USA

Past Weather in City of Ann Arbor, Michigan, USA — Yesterday and Last 2 Weeks

Now
37 °F

Overcast.


Feels Like: 37 °F
Forecast: 57 / 35 °F
Wind: No wind

Location: Ann Arbor Municipal Airport

Current Time: Apr 4, 2020 at 8:44:11 am

Latest Report: Apr 4, 2020 at 7:53 am


Visibility: 10 mi

Pressure: 30.06 "Hg

Humidity: 82%

Dew Point: 32 °F

Location of City of Ann ArborLocation

Past Weather in City of Ann Arbor — Graph

°F

City of Ann Arbor Temperature Yesterday

Maximum temperature yesterday: 63 °F (at 2:53 pm)
Minimum temperature yesterday: 32 °F (at 12:53 am)
Average temperature yesterday: 49 °F

High & Low Weather Summary for the Past Weeks

 TemperatureHumidityPressure
High63 °F (Mar 20, 8:53 am)97% (Mar 28, 8:53 pm)30.62 "Hg (Mar 28, 8:53 pm)
Low20 °F (Mar 22, 4:53 am)16% (Apr 3, 2:53 pm)29.50 "Hg (Mar 29, 6:26 am)
Average42 °F75%30.02 "Hg
* Reported Mar 20 6:38 am — Apr 4 6:53 am, City of Ann Arbor. Weather by CustomWeather, © 2020

Note: Actual official high and low records may vary slightly from our data, if they occured in-between our weather recording intervals... More about our weather records

City of Ann Arbor Weather History for the Previous 24 Hours

Scroll right to see more
 ConditionsComfort  
Time TempWeatherWind HumidityBarometerVisibility
6:53 am
Sat, Apr 4
35 °FPassing clouds.No wind85%30.04 "Hg10 mi
5:53 am36 °FPassing clouds.No wind85%30.03 "Hg10 mi
5:06 am33 °FFog.No wind88%30.03 "Hg4 mi
4:56 am32 °FIce fog.No wind92%30.03 "Hg1 mi
3:53 am32 °FClear.No wind92%30.03 "Hg10 mi
2:53 am35 °FClear.No wind88%30.04 "Hg10 mi
1:53 am37 °FClear.No wind86%30.04 "Hg10 mi
12:53 am39 °FClear.No wind76%30.06 "Hg10 mi
11:53 pm
Fri, Apr 3
41 °FClear.No wind76%30.06 "Hg10 mi
10:53 pm45 °FClear.3 mph63%30.07 "Hg10 mi
9:53 pm49 °FClear.6 mph57%30.06 "Hg10 mi
8:53 pm51 °FClear.7 mph50%30.04 "Hg10 mi
7:53 pm56 °FSunny.7 mph28%30.02 "Hg10 mi
6:53 pm61 °FSunny.9 mph20%30.02 "Hg10 mi
5:53 pm63 °FSunny.8 mph18%30.02 "Hg10 mi
4:53 pm63 °FSunny.7 mph18%30.02 "Hg10 mi
3:53 pm63 °FSunny.7 mph17%30.03 "Hg10 mi
2:53 pm63 °FSunny.8 mph16%30.04 "Hg10 mi
1:53 pm62 °FSunny.9 mph18%30.07 "Hg10 mi
12:53 pm59 °FSunny.3 mph21%30.09 "Hg10 mi
11:53 am58 °FSunny.7 mph21%30.10 "Hg10 mi
10:53 am56 °FSunny.9 mph26%30.10 "Hg10 mi
9:53 am50 °FSunny.3 mph39%30.11 "Hg10 mi
8:53 am45 °FSunny.6 mph49%30.11 "Hg10 mi
Weather by CustomWeather, © 2020

See weather overview

Advertising